Regional Weather Roundup
Issued by NWS Upton, NY

Current Version | Previous Version | Graphics & Text | Print | Product List | Glossary Off
Versions: 1 2 3 4 5 6 7 8 9 10 11 12 13 14 15 16 17 18 19 20 21 22 23 24 25 26 27 28 29 30 31 32 33 34 35 36 37 38 39 40 41 42 43 44 45 46 47 48 49 50

000
ASUS41 KOKX 241409
RWROKX

REGIONAL WEATHER ROUNDUP
NATIONAL WEATHER SERVICE NEW YORK NY
1000 AM EDT SAT JUN 24 2017

NOTE: "FAIR" INDICATES FEW OR NO CLOUDS BELOW 12,000 FEET WITH NO
SIGNIFICANT WEATHER AND/OR OBSTRUCTIONS TO VISIBILITY.

NYZ071-072-176-178-NJZ106-104-241500-
NEW YORK CITY METRO AREA

CITY           SKY/WX    TMP DP  RH WIND       PRES   REMARKS
Central Park   CLOUDY    74  71  91 W9        29.66R
Bronx Bot Gard   N/A     75  70  83 SW12      29.65R
LaGuardia APRT CLOUDY    77  72  84 NW8       29.62R
Kennedy INTL   CLOUDY    77  73  87 W10       29.64R
Breezy Point     N/A     70 N/A N/A W8          N/A
Newark/Liberty MOSUNNY   77  72  84 W13       29.63R
Teterboro      CLOUDY    78  72  81 W9        29.62R
$$

NYZ177-179-078>081-241500-
LONG ISLAND NEW YORK

CITY           SKY/WX    TMP DP  RH WIND       PRES   REMARKS
Jones Beach      N/A     72 N/A N/A W7          N/A
Matinecock PT  NOT AVBL
Farmingdale    NOT AVBL
MacArthur/ISP  PTSUNNY   73  72  96 NW8       29.61R
Shirley        CLOUDY    72  72 100 NW6       29.61S
Mt Sinai Harb    N/A    N/A N/A N/A W1          N/A
Westhampton    LGT RAIN  72  70  93 NW5       29.61F
East Hampton   LGT RAIN  70  69  98 CALM      29.59F
Montauk          N/A     69  69 100 SW7       29.61R
$$

NYZ052-065-067-241500-
HUDSON VALLEY

CITY           SKY/WX    TMP DP  RH WIND       PRES   REMARKS
White Plains   NOT AVBL
Larchmont Harb   N/A     72 N/A N/A SW8         N/A
Croton O-T Hud   N/A     75 N/A N/A W5          N/A
Newburgh       MOSUNNY   79  70  73 NW12G18   29.63R
Montgomery     SUNNY     79  62  56 NW17G23   29.63R
Poughkeepsie   MOSUNNY   79  64  60 NW8       29.60R
Albany         CLOUDY    71  64  78 W12       29.63R
$$

NJZ001-105-106-008-010-013-015-019>022-104-241500-
NEW JERSEY

CITY           SKY/WX    TMP DP  RH WIND       PRES   REMARKS
Newark/Liberty MOSUNNY   77  72  84 W13       29.63R
Teterboro      CLOUDY    78  72  81 W9        29.62R
Caldwell       MOSUNNY   80  68  66 NW12      29.64R
Somerville     PTSUNNY   79  72  79 NW8       29.64R
Linden         NOT AVBL
Perth Amboy      N/A     75 N/A N/A W16         N/A
Sussex         SUNNY     77  64  64 NW8G16    29.66R
Andover          N/A     76  63  64 VRB5      29.68R
Trenton        PTSUNNY   77  70  79 NW12      29.68R
Millville      MOSUNNY   79  72  79 W15G25    29.73R
Atlantic City  MOSUNNY   78  72  81 W14       29.71R
Wrightstown    PTSUNNY   77  71  81 W13       29.66R
Toms River     PTSUNNY   78  71  79 W14       29.69R
Belmar         MOSUNNY   76  71  85 W12G18    29.68R
$$

PAZ047>061-062-071-241500-
EASTERN PENNSYLVANIA

CITY           SKY/WX    TMP DP  RH WIND       PRES   REMARKS
Philadelphia   MOSUNNY   79  68  69 W12G23    29.72R
Allentown      MOSUNNY   77  59  53 NW16G22   29.71R
Scranton       SUNNY     73  60  63 NW9       29.74R
$$

CTZ002-004>006-009-010-012-RIZ004-006-007-MAZ004-011-015-241500-
SOUTHERN NEW ENGLAND
 IN CT

CITY           SKY/WX    TMP DP  RH WIND       PRES   REMARKS
Bradley INTL   CLOUDY    75  72  90 SW6       29.57S
Hartford       PTSUNNY   74  73  97 S6        29.57S
Danbury        PTSUNNY   76  72  87 W8        29.63R
Wtrbury/Oxford NOT AVBL
Bridgeport     CLOUDY    74  71  91 SW9       29.60R
Meriden        CLOUDY    72  71  97 S6        29.59R
New Haven      CLOUDY    72  70  94 SW8       29.60R FOG
Chester        NOT AVBL
Groton         RAIN      69  68  96 SW9       29.59R FOG
Wilimantic     LGT RAIN  74  72  93 CALM      29.58S

 IN RI

CITY           SKY/WX    TMP DP  RH WIND       PRES   REMARKS
Providence     HVY RAIN  72  72 100 CALM      29.57F FOG
Block Island   HVY RAIN  68  67  96 MISG        N/A  FOG
Westerly       RAIN      69  69 100 SW3       29.60R VSB 1
 IN MA

CITY           SKY/WX    TMP DP  RH WIND       PRES   REMARKS
Boston         RAIN      74  72  93 SW10      29.56R FOG
Worcester      LGT RAIN  71  68  90 SW7       29.60S
Westfield      MOSUNNY   78  73  84 S5        29.57R
Provincetown   LGT RAIN  67  66  97 SW14      29.59S FOG
Nantucket      CLOUDY    67  66  97 SW18      29.63F FOG
$$

ANZ330-335-338-340-345-350-353-355-241500-
COASTAL MARINE OBSERVATIONS


STATION/POSITION TIME  SKY/WX   TEMP    WIND        PRES    VSBY  WAVE
                                AIR SEA DIR/SP/G                  HT/PER
                 (UTC)          (F)     (DEG/KT/KT) (MB)    (MI)  (FT/S)
NY HARB ENTRANCE 1250            67 66  290/  8/ 10 1002.3          6/ 7
20 S FIRE ISLAND 1350            68 68  290/ 16/ 19 1002.0          9/ 8
GREAT SOUTH BAY  1330            71 75  330/  8/ 12   N/A
23 SSW MONTAUK P 1250            67 64              1001.8          7/ 8
15 E BARNEGAT LI 1330               62                N/A           8/ 8
HUDSON CANYON    1250            71 66  210/ 25/ 29 1002.8          9/ 8
KINGS POINT      1348            70 65  280/  6/  7 1003.0
EXECUTION ROCKS  1345            70     180/  6/  6   N/A
CENTRAL LI SOUND NOT AVBL
EASTERN LI SOUND NOT AVBL
ROBBINS REEF     1342                   270/ 12/ 16 1003.9
$$


>>>>>>>>>>>>>>>>>>>>>>>>>>>> KEY <<<<<<<<<<<<<<<<<<<<<<<<<<<
>                                                          <
>     SKY/WX - Sky Condition/Present Weather               <
>     TMP    - Temperature in Fahrenheit                   <
>     DP     - Dew Point in Fahrenheit                     <
>     RH     - Relative Humidity in Percent                <
>     WIND   - Direction (from) and Speed in MPH           <
>     PRES   - Mean Sea Level Pressure (inches of Hg)      <
>     WCI    - Wind Chill Index                            <
>     VSB    - VISIBILITY IN MILES                         <
>     HX     - HEAT INDEX                                  <
>     TC     - TEMPERATURE IN CELSIUS                      <
>     VRB    - VARIABLE WIND DIRECTION                     <
>                                                          <
>>>>>>>>>>>>>>>>>>>>>>>>>>>> KEY <<<<<<<<<<<<<<<<<<<<<<<<<<<



USA.gov is the U.S. government's official web portal to all federal, state and local government web resources and services.